Latest Weather Observations for Point Fawcett

IDD60901

Issued at 4:25 pm CST Tuesday 21 October 2014 (issued every 10 minutes, with the page automatically refreshed every 10 minutes)

About weather observations | Map of Darwin area stations | Latest observations for Darwin area | Other Formats
Station Details ID: 200731 Name: POINT FAWCETT Lat: -11.76 Lon: 130.03 Height: 6.5 m
Data from the previous 72 hours. | See also: Recent months at Point Fawcett
Date/Time
CST
Tmp

°C
App
Tmp
°C
Dew
Point
°C
Rel
Hum
%
Delta-T

°C
Wind Press
QNH
hPa
Press
MSL
hPa
Rain
since
9 am
mm
Dir
 
Spd
km/h
Gust
km/h
Spd
kts
Gust
kts
21/04:00pm 33.2 34.7 18.9 42 9.3 W 9 17 5 9 1011.1 - -
21/03:30pm 33.7 36.1 21.5 49 8.3 N 11 17 6 9 1011.2 - -
21/03:00pm 34.2 35.6 18.7 40 10.1 NE 9 19 5 10 1011.4 1011.3 -
21/02:30pm 33.2 35.1 19.7 45 8.9 NE 9 17 5 9 1011.7 - -
21/02:00pm 34.1 36.1 20.8 45 8.9 ENE 11 22 6 12 1012.0 - -
21/01:30pm 34.1 34.8 19.7 42 9.5 SSE 15 24 8 13 1012.7 - -
21/01:00pm 33.5 35.0 21.3 48 8.2 SE 15 28 8 15 1013.5 - -
21/12:30pm 33.4 34.9 21.2 48 8.2 SE 15 22 8 12 1014.2 - -
21/12:00pm 33.9 35.6 21.7 49 8.3 E 15 20 8 11 1014.7 1014.6 -
21/11:30am 33.2 35.1 21.4 50 8.0 SE 13 20 7 11 1015.1 - -
21/11:00am 33.4 34.8 18.7 41 9.6 NNE 9 19 5 10 1015.4 - -
21/10:30am 33.0 33.3 18.7 42 9.3 NNE 15 22 8 12 1015.4 - -
21/10:00am 32.1 33.3 20.0 48 8.0 NE 13 20 7 11 1015.4 - -
21/09:30am 31.6 32.3 19.6 49 7.9 NE 15 22 8 12 1015.2 - -
21/09:00am 29.8 32.7 21.7 61 5.4 NE 9 15 5 8 1015.3 1015.2 -
21/08:30am 29.0 32.4 22.0 66 4.7 NE 7 13 4 7 1015.4 - -
21/08:00am 27.4 31.6 23.4 79 2.7 ENE 7 11 4 6 1015.3 - -
21/07:30am 25.0 29.4 23.4 91 1.1 E 6 9 3 5 1014.8 - -
21/07:00am 22.6 25.5 21.1 91 1.0 ENE 7 7 4 4 1014.6 - -
21/06:30am 22.0 24.4 20.1 89 1.2 E 7 9 4 5 1014.5 - -
21/06:00am 22.0 24.3 19.9 88 1.3 E 7 9 4 5 1014.2 1014.1 -
21/05:30am 23.1 25.6 21.0 88 1.4 E 9 9 5 5 1013.9 - -
21/05:00am 23.9 26.7 21.6 87 1.5 ENE 9 11 5 6 1013.6 - -
21/04:30am 24.3 27.2 21.8 86 1.7 ENE 9 11 5 6 1013.5 - -
21/04:00am 24.2 27.1 21.7 86 1.7 E 9 13 5 7 1013.3 - -
21/03:30am 24.5 27.3 21.6 84 1.9 E 9 11 5 6 1013.3 - -
21/03:00am 24.6 27.1 21.1 81 2.3 E 9 11 5 6 1013.2 1013.1 -
21/02:30am 25.7 28.8 21.4 77 2.8 ENE 7 9 4 5 1013.2 - -
21/02:00am 26.6 29.4 21.6 74 3.3 NNE 9 13 5 7 1013.5 - -
21/01:30am 26.9 29.5 21.9 74 3.3 NNE 11 17 6 9 1013.6 - -
21/01:00am 26.9 29.2 21.4 72 3.7 NE 11 15 6 8 1014.0 - -
21/12:30am 27.1 29.3 21.2 70 3.9 NE 11 17 6 9 1014.3 - -
21/12:00am 27.6 29.9 21.4 69 4.1 NE 11 17 6 9 1014.3 1014.2 -
 
Date/Time
CST
Tmp

°C
App
Tmp
°C
Dew
Point
°C
Rel
Hum
%
Delta-T

°C
Wind Press
QNH
hPa
Press
MSL
hPa
Rain
since
9 am
mm
Dir
 
Spd
km/h
Gust
km/h
Spd
kts
Gust
kts
20/11:30pm 27.4 30.0 21.2 69 4.1 NNE 9 15 5 8 1014.3 - -
20/11:00pm 27.6 29.6 20.7 66 4.6 NE 11 15 6 8 1014.3 - -
20/10:30pm 27.9 30.4 21.7 69 4.2 N 11 19 6 10 1014.1 - -
20/10:00pm 28.0 30.0 22.2 70 3.9 N 15 22 8 12 1013.9 - -
20/09:30pm 28.2 30.3 22.4 71 3.9 NNW 15 19 8 10 1013.6 - -
20/09:00pm 28.1 30.3 22.6 72 3.7 N 15 20 8 11 1013.3 1013.2 -
20/08:30pm 28.1 30.1 22.3 70 3.9 NNW 15 20 8 11 1012.9 - -
20/08:00pm 28.3 30.1 22.5 71 3.9 NNW 17 20 9 11 1012.3 - -
20/07:30pm 28.5 30.3 22.5 70 4.1 NW 17 22 9 12 1011.9 - -
20/07:00pm 28.6 30.2 22.1 68 4.4 NW 17 20 9 11 1011.6 - -
20/06:30pm 28.9 30.5 22.2 67 4.5 NNW 17 22 9 12 1011.3 - -
20/06:00pm 29.5 31.3 22.5 66 4.8 NW 17 22 9 12 1011.0 1010.9 -
20/05:30pm 30.0 31.6 22.9 65 4.9 NW 19 26 10 14 1010.7 - -
20/05:00pm 30.8 32.4 23.2 64 5.2 NW 20 28 11 15 1010.3 - -
20/04:30pm 31.0 31.6 23.4 64 5.2 NNW 26 32 14 17 1010.1 - -
20/04:00pm 31.4 31.5 23.2 61 5.6 NNW 28 35 15 19 1010.1 - -
20/03:30pm 32.6 33.1 23.3 58 6.4 NNW 26 35 14 19 1010.0 - -
20/03:00pm 33.2 35.4 20.4 47 8.5 NNE 9 15 5 8 1010.3 1010.2 -
20/02:30pm 33.8 35.8 21.6 49 8.3 N 13 19 7 10 1010.5 - -
20/02:00pm 33.7 36.9 23.1 54 7.3 NNW 11 17 6 9 1011.1 - -
20/01:30pm 33.3 36.5 22.4 52 7.5 NNW 9 13 5 7 1011.5 - -
20/01:00pm 33.2 35.2 22.9 54 7.1 NW 17 24 9 13 1012.2 - -
20/12:30pm 32.4 35.3 22.5 56 6.8 NW 11 17 6 9 1013.0 - -
20/12:00pm 32.5 35.5 22.6 56 6.8 NNW 11 15 6 8 1013.7 1013.6 -
20/11:30am 31.8 34.8 21.9 55 6.7 WNW 9 13 5 7 1014.1 - -
20/11:00am 34.0 36.2 19.6 42 9.5 NNE 7 17 4 9 1014.2 - -
20/10:30am 33.1 34.7 19.2 43 9.1 E 9 20 5 11 1014.5 - -
20/10:00am 32.4 34.1 21.0 51 7.7 ENE 13 20 7 11 1014.8 - -
20/09:30am 31.2 32.8 20.8 54 6.9 ENE 13 28 7 15 1015.0 - -
20/09:00am 30.6 33.3 22.2 61 5.7 ENE 11 19 6 10 1014.8 1014.7 -
20/08:30am 29.5 32.4 21.7 63 5.2 E 9 13 5 7 1014.8 - -
20/08:00am 27.9 30.1 20.5 64 4.9 E 9 15 5 8 1014.6 - -
20/07:30am 25.3 28.3 21.2 78 2.7 E 7 11 4 6 1014.3 - -
20/07:00am 25.2 28.2 21.3 79 2.6 ENE 7 11 4 6 1013.7 - -
20/06:30am 24.6 26.6 22.3 87 1.5 E 15 22 8 12 1013.7 - -
20/06:00am 24.3 28.1 22.4 89 1.3 E 6 7 3 4 1013.4 1013.3 -
20/05:30am 24.3 27.9 22.4 89 1.3 E 7 9 4 5 1013.2 - -
20/05:00am 23.9 27.5 22.0 89 1.3 E 6 7 3 4 1012.8 - -
20/04:30am 23.9 27.1 21.6 87 1.5 E 7 9 4 5 1012.6 - -
20/04:00am 24.4 27.9 21.9 86 1.7 ESE 6 7 3 4 1012.5 - -
20/03:30am 24.9 28.5 22.4 86 1.7 ESE 7 9 4 5 1012.6 - -
20/03:00am 25.0 28.6 22.3 85 1.8 E 7 11 4 6 1012.4 1012.3 -
20/02:30am 25.7 29.2 22.2 81 2.3 E 7 11 4 6 1012.4 - -
20/02:00am 26.5 29.7 22.3 78 2.8 NE 9 15 5 8 1012.6 - -
20/01:30am 26.9 30.3 22.7 78 2.8 NE 9 15 5 8 1012.9 - -
20/01:00am 27.1 30.5 22.7 77 3.0 NE 9 13 5 7 1013.2 - -
20/12:30am 27.1 30.6 22.9 78 2.9 NE 9 15 5 8 1013.5 - -
20/12:00am 27.2 30.7 22.8 77 3.0 NE 9 11 5 6 1013.7 1013.6 -
 
Date/Time
CST
Tmp

°C
App
Tmp
°C
Dew
Point
°C
Rel
Hum
%
Delta-T

°C
Wind Press
QNH
hPa
Press
MSL
hPa
Rain
since
9 am
mm
Dir
 
Spd
km/h
Gust
km/h
Spd
kts
Gust
kts
19/11:30pm 27.0 30.3 22.6 77 3.0 NNE 9 13 5 7 1013.8 - -
19/11:00pm 27.2 30.2 22.6 76 3.1 NE 11 17 6 9 1013.7 - -
19/10:30pm 27.4 30.0 22.6 75 3.2 NNE 13 17 7 9 1013.6 - -
19/10:00pm 27.5 30.4 22.4 73 3.4 NE 11 17 6 9 1013.2 - -
19/09:30pm 27.6 30.4 22.3 73 3.6 NE 11 19 6 10 1013.0 - -
19/09:00pm 27.9 29.8 22.1 70 3.9 NNE 15 22 8 12 1012.7 1012.6 -
19/08:30pm 28.2 31.2 22.7 72 3.7 NNE 11 20 6 11 1012.2 - -
19/08:00pm 28.4 30.8 22.9 72 3.7 NNE 15 24 8 13 1011.8 - -
19/07:30pm 28.6 30.3 23.1 72 3.8 NNE 19 28 10 15 1011.1 - -
19/07:00pm 28.9 30.9 22.9 70 4.1 NNE 17 24 9 13 1010.7 - -
19/06:30pm 29.4 31.1 23.1 69 4.3 NNE 19 28 10 15 1010.5 - -
19/06:00pm 30.3 32.5 24.2 70 4.2 N 20 28 11 15 1010.2 1010.1 -
19/05:30pm 31.0 33.5 24.4 68 4.6 N 19 26 10 14 1010.1 - -
19/05:00pm 31.2 34.0 23.6 64 5.3 N 15 22 8 12 1010.0 - -
19/04:30pm 31.8 34.7 24.4 65 5.2 NNW 17 22 9 12 1010.0 - -
19/04:00pm 30.6 33.2 23.3 65 5.0 N 15 22 8 12 1010.3 - -
19/03:30pm 30.4 34.4 23.8 68 4.6 W 9 15 5 8 1010.6 - -
19/03:00pm 30.1 33.5 24.0 70 4.2 W 13 19 7 10 1010.5 1010.4 -
19/02:30pm 31.2 34.3 24.1 66 4.9 WSW 15 26 8 14 1010.5 - -
19/02:00pm 32.8 36.3 22.9 56 6.8 S 9 15 5 8 1010.5 - -
19/01:30pm 33.5 37.3 24.1 58 6.6 W 11 24 6 13 1010.8 - -
19/01:00pm 32.8 36.0 24.3 61 6.0 WSW 15 20 8 11 1011.4 - -
19/12:30pm 32.4 35.7 23.9 61 5.9 WSW 13 20 7 11 1012.0 - -
19/12:00pm 32.4 35.9 23.6 59 6.1 W 11 15 6 8 1012.5 1012.4 -
19/11:30am 32.2 35.3 22.9 58 6.4 W 11 15 6 8 1013.0 - -
19/11:00am 33.2 36.5 22.6 53 7.3 N 9 13 5 7 1013.5 - -
19/10:30am 32.8 35.9 22.9 56 6.8 ENE 11 17 6 9 1013.8 - -
19/10:00am 32.5 35.5 22.6 56 6.8 E 11 20 6 11 1014.2 - -
19/09:30am 30.9 34.2 22.5 61 5.7 E 9 13 5 7 1014.4 - -
19/09:00am 30.1 33.2 22.8 65 5.0 E 11 19 6 10 1014.4 1014.3 -
19/08:30am 29.1 32.1 22.6 68 4.4 E 11 17 6 9 1014.2 - -
19/08:00am 27.4 30.5 22.8 76 3.1 E 11 19 6 10 1014.0 - -
19/07:30am 25.7 29.5 23.4 87 1.6 E 9 13 5 7 1013.7 - -
19/07:00am 24.2 27.7 22.8 92 0.9 E 9 13 5 7 1013.2 - -
19/06:30am 23.3 26.4 22.1 93 0.8 E 9 13 5 7 1012.8 - -
19/06:00am 22.8 25.9 21.4 92 0.9 ESE 7 11 4 6 1012.5 1012.4 -
19/05:30am 23.5 26.7 22.3 93 0.8 E 9 11 5 6 1012.5 - -
19/05:00am 23.4 26.6 22.4 94 0.7 E 9 13 5 7 1012.2 - -
19/04:30am 22.2 24.7 21.0 93 0.8 ESE 9 13 5 7 1011.9 - -
19/04:00am 21.6 23.7 20.2 92 0.9 ESE 9 11 5 6 1011.5 - -
19/03:30am 21.6 24.1 20.2 92 0.9 ESE 7 9 4 5 1011.2 - -
19/03:00am 21.8 24.3 20.3 91 1.0 ESE 7 9 4 5 1011.3 1011.2 -
19/02:30am 21.4 23.6 19.7 90 1.1 ESE 7 9 4 5 1011.4 - -
19/02:00am 21.6 23.8 19.7 89 1.2 SE 7 7 4 4 1011.6 - -
19/01:30am 22.3 24.8 20.2 88 1.4 SE 7 9 4 5 1011.8 - -
19/01:00am 22.8 25.5 20.3 86 1.6 ESE 6 7 3 4 1012.0 - -
19/12:30am 23.4 26.1 20.3 83 2.0 E 6 7 3 4 1012.2 - -
19/12:00am 24.6 27.5 20.7 79 2.6 ENE 6 9 3 5 1012.6 1012.5 -
 
Date/Time
CST
Tmp

°C
App
Tmp
°C
Dew
Point
°C
Rel
Hum
%
Delta-T

°C
Wind Press
QNH
hPa
Press
MSL
hPa
Rain
since
9 am
mm
Dir
 
Spd
km/h
Gust
km/h
Spd
kts
Gust
kts
18/11:30pm 26.2 29.7 22.1 78 2.7 NE 7 9 4 5 1012.8 - -
18/11:00pm 26.8 29.7 22.4 77 3.0 NE 11 15 6 8 1012.7 - -
18/10:30pm 27.2 29.7 22.4 75 3.2 NNE 13 20 7 11 1012.6 - -
18/10:00pm 27.5 29.8 22.7 75 3.3 NE 15 20 8 11 1012.3 - -
18/09:30pm 27.7 30.3 22.6 74 3.5 NNE 13 20 7 11 1012.2 - -
18/09:00pm 28.4 31.7 23.8 76 3.2 N 13 20 7 11 1012.0 1011.9 -
18/08:30pm 28.3 31.5 23.7 76 3.2 N 13 19 7 10 1011.8 - -
18/08:00pm 28.4 31.3 23.8 76 3.2 N 15 20 8 11 1011.7 - -
18/07:30pm 28.2 30.7 23.1 74 3.5 N 15 20 8 11 1011.3 - -
18/07:00pm 28.5 30.8 23.4 74 3.5 N 17 20 9 11 1011.0 - -
18/06:30pm 28.8 30.6 22.5 68 4.3 N 17 24 9 13 1010.5 - -
18/06:00pm 29.6 31.9 22.1 64 5.1 NNW 13 17 7 9 1010.3 1010.2 -
18/05:30pm 30.5 32.3 21.8 59 5.9 NNW 15 19 8 10 1009.9 - -
18/05:00pm 31.5 32.8 21.7 56 6.6 NW 17 22 9 12 1009.8 - -
18/04:30pm 31.5 31.6 21.1 54 7.0 WNW 22 28 12 15 1009.7 - -

Latest Capital City Observations: Canberra | Sydney | Melbourne | Brisbane | Adelaide | Perth | Hobart | Darwin

Other Formats:

Comma delimited format used in spreadsheet applications
http://www.bom.gov.au/fwo/IDD60901/IDD60901.94122.axf

JavaScript Object Notation format (JSON) in row-major order
http://www.bom.gov.au/fwo/IDD60901/IDD60901.94122.json